FW6411 Weather Reports


time (UTC)temp
F
wind
direction
speed
knots
gust
knots
rain 1hr
in
rain 24hr
in
rain mn
in
humidity
%
barometer
mb
20260508203006 48 305 5.2 8.7 0.00 0.28 0.00 71 1002.2
20260508202603 50 328 4.3 7.8 0.00 0.28 0.00 67 1002.3
20260508202006 52 160 0.0 7.8 0.00 0.28 0.00 65 1002.2
20260508201503 52 22 3.5 7.8 0.00 0.28 0.00 61 1002.1
20260508201008 52 339 4.3 7.8 0.00 0.28 0.00 62 1002.0
20260508200504 52 306 3.5 6.1 0.00 0.28 0.00 60 1001.9
20260508200011 52 312 2.6 7.0 0.00 0.28 0.00 63 1001.8
20260508195504 51 335 3.5 7.0 0.00 0.56 0.00 64 1001.7
20260508195008 51 349 2.6 8.7 0.00 0.56 0.00 66 1001.6
20260508194507 51 319 4.3 8.7 0.00 0.56 0.00 68 1001.6
20260508194102 52 324 4.3 7.8 0.00 0.56 0.00 59 1001.5
20260508193505 53 329 4.3 7.8 0.00 0.56 0.00 61 1001.5
20260508192507 54 61 4.3 7.8 0.00 0.56 0.00 60 1001.5
20260508192004 53 347 3.5 11.3 0.00 0.56 0.00 60 1001.4
20260508191508 53 348 4.3 11.3 0.00 0.56 0.00 61 1001.4
20260508191005 53 9 5.2 11.3 0.00 0.56 0.00 58 1001.4
20260508190510 54 15 5.2 10.4 0.00 0.56 0.00 57 1001.4
20260508190005 54 38 5.2 10.4 0.00 0.56 0.00 56 1001.3
20260508185613 54 311 3.5 9.6 0.00 0.67 0.00 58 1001.3
20260508185005 54 341 5.2 8.7 0.00 0.67 0.00 59 1001.3
20260508184509 54 21 4.3 9.6 0.00 0.67 0.00 58 1001.3
20260508184106 54 310 4.3 9.6 0.00 0.67 0.00 58 1001.1
20260508183504 54 24 3.5 9.6 0.00 0.67 0.00 57 1001.0
20260508183007 54 69 5.2 11.3 0.00 0.67 0.00 56 1001.1
20260508182503 54 26 4.3 11.3 0.00 0.67 0.00 56 1001.3
20260508182009 54 26 3.5 8.7 0.00 0.67 0.00 59 1001.4
20260508181504 54 34 3.5 9.6 0.00 0.67 0.00 58 1001.5
20260508181011 54 332 3.5 9.6 0.00 0.67 0.00 59 1001.4
20260508180506 54 26 5.2 8.7 0.00 0.67 0.00 58 1001.5
20260508180107 54 10 4.3 7.8 0.00 0.67 0.00 59 1001.5
20260508175508 54 358 3.5 10.4 0.00 0.67 0.00 59 1001.5
20260508175004 54 67 2.6 8.7 0.00 0.67 0.00 58 1001.5
20260508174507 54 40 3.5 8.7 0.00 0.67 0.00 59 1001.5
20260508174004 54 26 2.6 7.8 0.00 0.67 0.00 60 1001.6
20260508173506 54 26 3.5 7.8 0.00 0.67 0.00 61 1001.6
20260508173010 53 355 2.6 7.0 0.00 0.67 0.00 62 1001.6
20260508172508 53 345 2.6 7.0 0.00 0.67 0.00 63 1001.7
20260508172103 53 309 1.7 7.0 0.00 0.67 0.00 64 1001.7
20260508171506 52 318 1.7 7.0 0.00 0.67 0.00 64 1001.9
20260508171010 52 17 2.6 7.0 0.00 0.67 0.00 67 1002.0
20260508170507 51 16 2.6 7.0 0.00 0.67 0.00 67 1002.0
20260508170010 51 348 2.6 7.0 0.00 0.67 0.00 67 1002.0
20260508165505 51 26 3.5 7.8 0.00 0.67 0.00 67 1002.1
20260508165009 51 76 3.5 7.8 0.00 0.67 0.00 67 1002.0
20260508164507 51 65 2.6 6.1 0.00 0.67 0.00 67 1001.9
20260508164010 51 322 1.7 6.1 0.00 0.67 0.00 67 1001.9
20260508163505 51 17 2.6 7.0 0.00 0.67 0.00 66 1001.9
20260508163014 51 19 2.6 7.8 0.00 0.67 0.00 67 1001.7
20260508162502 51 360 3.5 7.8 0.00 0.67 0.00 67 1001.7
20260508162011 51 67 1.7 6.1 0.00 0.67 0.00 67 1002.0
20260508161504 51 338 2.6 6.1 0.00 0.67 0.00 67 1001.9
20260508161010 51 348 1.7 6.1 0.00 0.67 0.00 68 1001.7
20260508160504 51 342 2.6 5.2 0.00 0.67 0.00 69 1001.8
20260508160009 50 308 2.6 5.2 0.00 0.67 0.00 69 1001.9
20260508155505 50 320 2.6 7.8 0.00 0.67 0.00 69 1002.0
20260508155007 50 14 2.6 7.8 0.00 0.67 0.00 69 1002.0
20260508154510 50 29 3.5 8.7 0.00 0.67 0.00 70 1001.8
20260508154005 50 8 3.5 8.7 0.00 0.67 0.00 70 1001.8
20260508153507 50 40 3.5 8.7 0.00 0.67 0.00 70 1001.9
20260508153009 50 353 3.5 7.8 0.00 0.67 0.00 71 1002.0
20260508152508 51 320 1.7 5.2 0.00 0.67 0.00 71 1002.0
20260508152105 51 353 2.6 7.8 0.00 0.67 0.00 71 1001.8
20260508151509 50 18 3.5 7.8 0.00 0.67 0.00 71 1001.8
20260508151005 51 324 1.7 7.0 0.00 0.67 0.00 72 1002.0
20260508150508 50 7 2.6 7.0 0.00 0.67 0.00 73 1001.9
20260508150004 50 1 4.3 7.0 0.00 0.67 0.00 72 1001.9
20260508145512 51 327 3.5 6.1 0.00 0.67 0.00 73 1002.0
20260508145106 50 24 3.5 7.0 0.00 0.67 0.00 74 1002.2
20260508144510 50 319 3.5 8.7 0.00 0.67 0.00 74 1002.0
20260508144005 50 55 3.5 8.7 0.00 0.67 0.00 74 1002.1
20260508143509 50 332 3.5 7.0 0.00 0.67 0.00 73 1002.2
20260508143118 50 309 3.5 7.0 0.00 0.67 0.00 74 1002.1
20260508142506 51 312 2.6 7.8 0.00 0.67 0.00 74 1002.1
20260508142002 51 309 4.3 7.8 0.00 0.67 0.00 75 1002.0
20260508141510 50 74 4.3 7.8 0.00 0.67 0.00 75 1002.2
20260508141005 50 357 4.3 9.6 0.00 0.67 0.00 74 1002.4
20260508140512 50 346 3.5 9.6 0.00 0.67 0.00 75 1002.4
20260508140007 50 11 4.3 9.6 0.00 0.67 0.00 75 1002.4
20260508135508 51 355 3.5 6.1 0.00 0.67 0.00 74 1002.3
20260508135004 51 354 2.6 6.1 0.00 0.67 0.00 74 1002.4
20260508134511 51 332 1.7 7.0 0.00 0.67 0.00 77 1002.6
20260508134002 50 1 4.3 7.0 0.00 0.67 0.00 77 1002.7
20260508133510 50 16 2.6 7.0 0.00 0.67 0.00 77 1003.0
20260508133004 50 5 3.5 7.0 0.00 0.67 0.00 76 1002.9
20260508132507 50 329 3.5 7.0 0.00 0.67 0.00 78 1002.8
20260508132005 50 323 4.3 7.0 0.00 0.67 0.00 77 1002.7
20260508131508 50 314 3.5 8.7 0.00 0.67 0.00 78 1002.6
20260508131104 50 349 2.6 8.7 0.00 0.67 0.00 78 1002.4
20260508130506 49 341 2.6 8.7 0.00 0.67 0.00 80 1002.4
20260508130105 49 24 3.5 8.7 0.00 0.67 0.00 79 1002.3
20260508125506 49 344 5.2 9.6 0.00 0.67 0.00 80 1002.4
20260508125010 49 13 5.2 9.6 0.00 0.67 0.00 80 1002.2
20260508124605 49 3 2.6 7.8 0.00 0.67 0.00 81 1002.3
20260508124010 49 327 2.6 7.0 0.00 0.67 0.00 81 1002.0
20260508123505 49 358 3.5 7.0 0.00 0.67 0.00 84 1002.1
20260508123014 48 359 4.3 7.0 0.00 0.67 0.00 85 1002.3
20260508122511 47 353 3.5 7.0 0.00 0.67 0.00 87 1002.5
20260508122007 47 351 3.5 7.0 0.00 0.67 0.00 90 1002.5
20260508121511 46 358 2.6 6.1 0.00 0.67 0.00 93 1002.4
20260508121007 44 329 2.6 7.0 0.00 0.67 0.00 92 1002.4
20260508120604 44 332 3.5 7.0 0.00 0.67 0.00 94 1002.3
20260508120006 43 324 3.5 6.1 0.00 0.67 0.00 93 1002.5
20260508115603 43 337 2.6 5.2 0.00 0.67 0.00 93 1002.7
20260508115007 42 305 1.7 4.3 0.00 0.67 0.00 94 1002.7
20260508114504 42 298 1.7 4.3 0.00 0.67 0.00 94 1002.7
20260508114007 42 296 0.9 3.5 0.00 0.67 0.00 94 1002.8
20260508113604 42 290 1.7 3.5 0.00 0.67 0.00 95 1002.8
20260508113007 42 304 1.7 4.3 0.00 0.67 0.00 95 1002.6
20260508112604 41 292 0.9 4.3 0.00 0.67 0.00 95 1002.4
20260508112007 41 326 0.9 3.5 0.00 0.67 0.00 95 1002.6
20260508111512 40 295 0.9 3.5 0.00 0.67 0.00 95 1002.6
20260508111010 40 310 0.9 3.5 0.00 0.67 0.00 95 1002.6
20260508110506 40 303 0.9 2.6 0.00 0.67 0.00 95 1002.6
20260508110025 40 301 0.9 2.6 0.00 0.67 0.00 95 1002.6
20260508105506 40 320 0.9 2.6 0.00 0.67 0.00 95 1002.6
20260508105012 40 303 0.9 2.6 0.00 0.67 0.00 96 1002.8
20260508104510 40 313 0.9 2.6 0.00 0.67 0.00 95 1003.0
20260508104011 40 324 0.9 3.5 0.00 0.67 0.00 95 1003.0
20260508103507 39 304 1.7 4.3 0.00 0.67 0.00 95 1003.0
20260508102509 39 313 1.7 3.5 0.00 0.67 0.00 95 1002.9
20260508102011 39 313 0.9 2.6 0.00 0.67 0.00 95 1002.8
20260508101505 39 302 0.9 2.6 0.00 0.67 0.00 96 1002.8
20260508101010 39 311 0.9 2.6 0.00 0.67 0.00 96 1002.8
20260508100505 39 317 0.9 2.6 0.00 0.67 0.00 96 1002.9
20260508100010 39 325 0.9 2.6 0.00 0.67 0.00 95 1002.8
20260508095506 39 298 0.0 1.7 0.00 0.68 0.00 95 1002.6
20260508095011 39 297 0.9 1.7 0.00 0.68 0.00 95 1002.5
20260508094606 39 320 0.9 1.7 0.00 0.68 0.00 95 1002.3
20260508094010 39 318 0.9 1.7 0.00 0.68 0.00 95 1002.5
20260508093508 39 305 0.0 1.7 0.00 0.68 0.00 95 1002.5
20260508093012 39 322 0.0 3.5 0.00 0.68 0.00 95 1002.5
20260508092505 39 301 0.0 3.5 0.00 0.68 0.00 95 1002.6
20260508092010 39 323 1.7 3.5 0.00 0.68 0.00 95 1002.5
20260508091505 39 323 1.7 3.5 0.00 0.68 0.00 95 1002.5
20260508091010 40 309 0.9 2.6 0.00 0.68 0.00 95 1002.5
20260508090505 40 322 0.9 2.6 0.00 0.68 0.00 95 1002.4
20260508090010 40 329 0.0 1.7 0.00 0.68 0.00 95 1002.4
20260508085506 40 252 0.0 1.7 0.00 0.72 0.00 95 1002.4
20260508085010 40 299 0.0 1.7 0.00 0.72 0.00 95 1002.4
20260508084505 40 296 0.0 1.7 0.00 0.72 0.00 95 1002.5
20260508084009 41 280 0.0 0.9 0.00 0.72 0.00 95 1002.5
20260508083504 40 292 0.0 0.9 0.00 0.72 0.00 95 1002.3
20260508083009 41 306 0.0 0.9 0.00 0.72 0.00 95 1002.2
20260508082505 41 299 0.0 2.6 0.00 0.72 0.00 95 1002.1
20260508082008 41 305 0.9 2.6 0.00 0.72 0.00 94 1002.0
20260508081504 41 318 1.7 0.0 0.00 0.00 0.00 94 1001.9
20260508081010 42 320 0.9 4.3 0.00 0.72 0.00 94 1002.2
20260508080605 42 332 1.7 4.3 0.00 0.72 0.00 95 1002.1
20260508080012 42 360 1.7 4.3 0.00 0.72 0.00 95 1001.9
20260508075505 42 349 0.9 2.6 0.00 0.73 0.00 95 1002.0
20260508075011 42 22 0.9 5.2 0.00 0.73 0.00 95 1001.9
20260508074506 42 348 2.6 5.2 0.00 0.73 0.00 95 1001.9
20260508074011 42 17 1.7 4.3 0.00 0.73 0.00 95 1002.0
20260508073507 43 5 1.7 4.3 0.00 0.73 0.00 95 1002.1
20260508073011 43 14 0.9 5.2 0.00 0.73 0.00 95 1002.0
20260508072604 43 17 2.6 5.2 0.00 0.73 0.00 95 1002.1
20260508072012 43 37 1.7 4.3 0.00 0.73 0.00 95 1002.0
20260508071505 43 342 1.7 3.5 0.00 0.73 0.00 95 1002.2
20260508071010 43 318 0.9 2.6 0.00 0.73 0.00 95 1002.1
20260508070509 43 355 0.9 4.3 0.00 0.73 0.00 95 1002.1
20260508070008 43 5 1.7 4.3 0.00 0.73 0.00 95 1002.0
20260508065603 43 328 0.9 4.3 0.00 0.73 0.00 95 1002.0
20260508065011 44 22 1.7 6.1 0.00 0.73 0.00 94 1002.0
20260508064603 44 334 2.6 6.1 0.00 0.73 0.00 94 1002.0
20260508064009 44 29 1.7 7.8 0.00 0.73 0.00 94 1002.0
20260508063510 45 26 3.5 7.8 0.00 0.73 0.00 94 1001.9
20260508063006 45 12 1.7 7.8 0.00 0.73 0.00 94 1002.1
20260508062510 46 335 2.6 6.1 0.00 0.73 0.00 94 1002.1
20260508062005 46 320 1.7 7.0 0.00 0.73 0.00 95 1001.8
20260508061510 46 40 3.5 7.0 0.00 0.73 0.00 95 1001.9
20260508061106 47 306 3.5 7.0 0.00 0.73 0.00 95 1001.9
20260508060510 47 52 3.5 7.0 0.00 0.73 0.00 95 1001.7
20260508060005 47 343 2.6 7.0 0.00 0.73 0.00 95 1001.6
20260508055508 47 337 3.5 7.0 0.00 0.73 0.00 95 1001.7
20260508055106 48 341 0.9 3.5 0.00 0.73 0.00 95 1001.5
20260508054518 47 2 0.9 3.5 0.00 0.73 0.00 94 1001.6
20260508054003 48 315 0.9 4.3 0.00 0.73 0.00 95 1001.6
20260508053509 48 10 1.7 4.3 0.00 0.73 0.00 95 1001.8
20260508053005 48 338 0.9 3.5 0.00 0.73 0.00 95 1001.7
20260508052508 48 328 0.9 4.3 0.00 0.73 0.00 95 1001.4
20260508052105 48 359 0.9 4.3 0.00 0.73 0.00 95 1001.4
20260508051507 48 42 0.9 2.6 0.00 0.73 0.00 95 1001.4
20260508051105 49 357 0.0 1.7 0.00 0.73 0.00 95 1001.3
20260508050508 49 8 0.0 0.9 0.00 0.73 0.00 95 1001.2
20260508050104 49 344 0.0 1.7 0.00 0.73 0.00 95 1001.4
20260508045507 49 314 0.0 1.7 0.00 0.73 0.00 96 1001.5
20260508045010 49 318 0.0 0.9 0.00 0.73 0.00 96 1001.6
20260508044507 49 196 0.0 0.9 0.00 0.73 0.00 95 1001.6
20260508044011 49 196 0.0 0.9 0.00 0.73 0.00 96 1001.6
20260508043507 49 196 0.0 0.9 0.00 0.73 0.00 96 1001.6
20260508043103 49 196 0.0 0.9 0.00 0.73 0.00 96 1001.6
20260508042513 49 185 0.0 0.0 0.00 0.73 0.00 96 1001.7
20260508042004 49 185 0.0 0.0 0.00 0.73 0.00 96 1001.8
20260508041514 49 185 0.0 0.0 0.00 0.73 0.00 96 1001.7
20260508041004 49 185 0.0 0.0 0.00 0.73 0.00 96 1001.7
20260508040510 49 185 0.0 0.0 0.00 0.73 0.00 96 1001.7
20260508040005 49 185 0.0 0.0 0.00 0.73 0.00 96 1001.9
20260508035509 49 185 0.0 0.0 0.00 0.73 0.00 96 1002.0
20260508034511 49 185 0.0 0.0 0.00 0.73 0.00 95 1002.1
20260508033507 49 185 0.0 0.9 0.00 0.73 0.00 95 1002.1
20260508033006 49 185 0.0 0.9 0.00 0.73 0.00 95 1002.1
20260508032508 49 197 0.0 0.9 0.00 0.73 0.00 95 1002.1
20260508032004 49 206 0.0 2.6 0.00 0.73 0.00 95 1002.1
20260508031512 49 170 0.9 2.6 0.00 0.73 0.00 95 1002.3
20260508031005 49 213 0.9 2.6 0.00 0.73 0.00 95 1002.2
20260508030511 49 209 0.0 1.7 0.00 0.73 0.00 95 1002.2
20260508030005 49 161 0.0 1.7 0.00 0.73 0.00 95 1002.3
20260508025511 48 171 0.0 1.7 0.00 0.73 0.73 95 1002.4
20260508025002 49 192 0.0 3.5 0.00 0.73 0.73 95 1002.0
20260508024508 49 175 1.7 5.2 0.00 0.73 0.73 95 1002.1
20260508024003 49 200 2.6 5.2 0.00 0.73 0.73 95 1001.8
20260508023510 49 211 1.7 4.3 0.00 0.73 0.73 95 1001.9
20260508023004 49 195 1.7 4.3 0.00 0.73 0.73 95 1001.8
20260508022509 49 211 2.6 4.3 0.00 0.73 0.73 95 1001.9
20260508022005 49 230 1.7 3.5 0.00 0.73 0.73 95 1002.0
20260508021509 49 207 1.7 3.5 0.00 0.73 0.73 95 1001.8
20260508021005 49 218 1.7 3.5 0.00 0.73 0.73 95 1001.7
20260508020510 49 211 0.9 5.2 0.00 0.73 0.73 95 1002.0
20260508020005 49 220 2.6 5.2 0.00 0.73 0.73 95 1002.0
20260508015604 49 217 2.6 5.2 0.00 0.73 0.73 95 1002.0
20260508015004 49 191 0.9 5.2 0.00 0.73 0.73 95 1002.0
20260508014511 49 226 2.6 5.2 0.00 0.73 0.73 95 1002.1
20260508014007 49 170 2.6 5.2 0.00 0.73 0.73 95 1002.1
20260508013606 49 250 0.9 3.5 0.00 0.73 0.73 95 1002.0
20260508013006 48 163 1.7 3.5 0.00 0.73 0.73 95 1001.9
20260508012503 48 143 0.9 3.5 0.00 0.73 0.73 95 1001.8
20260508012007 48 167 0.9 3.5 0.00 0.73 0.73 95 1001.7
20260508011504 48 217 1.7 5.2 0.00 0.73 0.73 95 1002.0
20260508011007 48 147 0.9 5.2 0.00 0.73 0.73 95 1001.9
20260508010503 48 144 2.6 7.0 0.00 0.73 0.73 95 1002.0
20260508010019 48 152 1.7 7.0 0.00 0.73 0.73 94 1002.2
20260508005504 48 142 2.6 7.0 0.00 0.73 0.73 95 1002.5
20260508005004 48 192 3.5 7.0 0.00 0.73 0.73 94 1002.4
20260508004518 49 149 1.7 5.2 0.00 0.73 0.73 94 1002.3
20260508004005 49 165 1.7 5.2 0.00 0.73 0.73 94 1002.4
20260508003509 48 152 2.6 5.2 0.00 0.73 0.73 94 1002.3
20260508003007 48 206 1.7 3.5 0.00 0.73 0.73 94 1002.1
20260508002604 49 172 1.7 3.5 0.00 0.73 0.73 94 1002.1
20260508002007 49 187 0.0 4.3 0.00 0.73 0.73 94 1002.2
20260508001505 49 174 1.7 5.2 0.00 0.73 0.73 94 1002.3
20260508001008 49 201 1.7 5.2 0.00 0.73 0.73 94 1002.2
20260508000503 49 215 2.6 5.2 0.00 0.73 0.73 94 1002.5
20260508000008 49 163 2.6 5.2 0.00 0.73 0.73 94 1002.8
20260507235504 49 169 2.6 5.2 0.00 0.73 0.73 94 1002.7
20260507235113 49 149 1.7 5.2 0.00 0.73 0.73 94 1002.6
20260507234613 49 199 2.6 7.0 0.01 0.73 0.73 94 1002.3
20260507234006 49 175 2.6 7.0 0.01 0.73 0.73 94 1002.5
20260507233603 49 170 1.7 7.8 0.01 0.73 0.73 94 1002.6
20260507233007 49 153 4.3 7.8 0.01 0.73 0.73 94 1002.7
20260507232502 49 161 3.5 7.8 0.01 0.73 0.73 94 1002.6
20260507232008 49 144 3.5 7.8 0.01 0.73 0.73 94 1002.8
20260507231504 49 213 2.6 7.0 0.01 0.73 0.73 94 1002.8
20260507231008 49 168 3.5 8.7 0.01 0.73 0.73 94 1003.0
20260507230504 49 151 5.2 8.7 0.01 0.73 0.73 94 1003.0
20260507230008 49 192 3.5 5.2 0.01 0.73 0.73 94 1002.9
20260507225505 49 180 1.7 5.2 0.01 0.73 0.73 94 1002.6
20260507225013 49 157 1.7 7.0 0.01 0.73 0.73 94 1002.6
20260507224514 49 157 2.6 6.1 0.00 0.72 0.72 93 1003.0
20260507224005 49 165 2.6 6.1 0.00 0.72 0.72 93 1003.0
20260507223513 49 148 2.6 6.1 0.00 0.72 0.72 93 1003.0
20260507223007 49 173 2.6 7.8 0.00 0.72 0.72 93 1003.0
20260507222604 49 174 3.5 9.6 0.00 0.72 0.72 93 1002.7
20260507222009 49 154 4.3 12.2 0.00 0.72 0.72 93 1002.9
20260507221505 49 167 6.1 12.2 0.00 0.72 0.72 93 1003.0
20260507221009 50 189 6.1 10.4 0.00 0.72 0.72 92 1002.9
20260507220505 50 164 5.2 13.9 0.00 0.72 0.72 92 1003.1
20260507220010 50 155 9.6 13.9 0.00 0.72 0.72 92 1002.9
20260507215505 50 204 7.0 13.9 0.01 0.72 0.72 93 1002.8
20260507215010 50 146 7.0 13.9 0.01 0.72 0.72 93 1002.9
20260507214006 49 139 8.7 14.8 0.05 0.72 0.72 92 1002.7
20260507213504 49 118 7.0 20.0 0.07 0.72 0.72 92 1002.5
20260507213008 49 115 10.4 20.0 0.09 0.72 0.72 92 1002.4
20260507212503 49 126 9.6 23.5 0.12 0.72 0.72 92 1001.9
20260507212008 49 114 13.0 23.5 0.15 0.72 0.72 92 1001.6
20260507211503 49 183 9.6 18.2 0.17 0.72 0.72 92 1002.1
20260507211007 49 156 6.1 13.0 0.20 0.72 0.72 92 1002.4
20260507210005 49 119 7.8 15.6 0.26 0.72 0.72 92 1003.1
20260507205511 50 141 7.0 15.6 0.28 0.72 0.72 92 1003.2
20260507205106 50 138 8.7 16.5 0.31 0.72 0.72 92 1003.4
20260507204503 50 168 9.6 16.5 0.34 0.69 0.69 91 1003.5
20260507204007 50 133 7.0 15.6 0.34 0.67 0.67 92 1003.9
20260507203604 50 139 8.7 15.6 0.35 0.65 0.65 92 1003.7